Preview of NWS' New Version of Forecast
This preview is not operational and should not be used for support decisions.

Regional Weather Roundup (RWR)

Issued by National Weather Service (NWS)

                            
000
ASUS43 KDMX 200001
RWRIA 

WEATHER ROUNDUP FOR IOWA
NATIONAL WEATHER SERVICE DES MOINES IA
600 PM CST TUE FEB 19 2019

NOTE: "FAIR" INDICATES FEW OR NO CLOUDS BELOW 12,000 FEET WITH NO
SIGNIFICANT WEATHER AND/OR OBSTRUCTIONS TO VISIBILITY.

* - THESE STATIONS ARE NOT NWS STATIONS...THUS NOT UNDER NWS
QUALITY CONTROL.  THEY ALSO DO NOT REPORT WEATHER SUCH 
AS PRECIPITATION OR FOG.  

IAZ001>003-012>014-020>022-031>034-043>046-200100-
   NORTHWEST IOWA
  
CITY           SKY/WX    TMP DP  RH WIND       PRES   REMARKS
CARROLL *      CLOUDY    16  16 100 E8        30.31F WCI   5          
CHEROKEE *     CLOUDY    15  11  86 E10       30.31F WCI   2          
DENISON *      CLOUDY    14  12  92 E12       30.29F FOG     WCI   0  
LE MARS *      CLOUDY    14  10  85 E15       30.26F WCI  -1          
ORANGE CITY *  CLOUDY    16  12  86 E10       30.27F WCI   3          
SHELDON *      CLOUDY    14  10  85 SE17      30.28S WCI  -3          
SIOUX CITY     CLOUDY    17  10  74 E13       30.26F WCI   4          
6HR MIN TEMP:  10; 6HR MAX TEMP:  18;                                

SPENCER        CLOUDY    14   7  73 SE13      30.34R WCI   0          
6HR MIN TEMP:  13; 6HR MAX TEMP:  18;                                

STORM LAKE *   CLOUDY    12  12 100 E10       30.29F WCI  -1          
$$
 
IAZ055>058-069>071-079>083-090>094-200100-
   SOUTHWEST IOWA
  
CITY           SKY/WX    TMP DP  RH WIND       PRES   REMARKS
ATLANTIC *     CLOUDY    18  16  93 E8G21     30.27F WCI   7          
AUDUBON *      LGT SNOW  16  12  86 CALM      30.27F                  
CLARINDA *     CLOUDY    25  18  74 E7        30.27F WCI  17          
COUNCIL BLFS * CLOUDY    19  19 100 E14       30.21F WCI   6          
CRESTON *      CLOUDY    21  18  86 E14       30.26F WCI   8          
HARLAN  *      LGT SNOW  16  14  93 NE15      30.22F VSB 1   WCI   1  
LAMONI         CLOUDY    25  18  74 NE10G18   30.25F WCI  15          
6HR MIN TEMP:  21; 6HR MAX TEMP:  26;                                

RED OAK *      CLOUDY    23  21  93 NE12      30.25F WCI  12          
SHENANDOAH *   CLOUDY    25  19  80 E10G20    30.24S WCI  15          
$$
 
IAZ047>049-059>061-072>074-084-200100-
   CENTRAL IOWA
  
CITY           SKY/WX    TMP DP  RH WIND       PRES   REMARKS
AMES           CLOUDY    17  11  77 E6        30.36F WCI   9          
6HR MIN TEMP:  10; 6HR MAX TEMP:  18;                                

ANKENY *       CLOUDY    18  14  86 NE9       30.36F WCI   6          
BOONE *        CLOUDY    18  16  93 E7        30.33F WCI   8          
CHARITON *     CLOUDY    21  18  86 E9        30.30F WCI  11          
DES MOINES     CLOUDY    19  13  77 NE10      30.32F WCI   7          
6HR MIN TEMP:  15; 6HR MAX TEMP:  20; 6HR PCP: TRACE;                

GRINNELL*      CLOUDY    20  16  84 E8        30.37S WCI  11          
KNOXVILLE *    CLOUDY    21  21 100 E7        30.33S WCI  13          
MARSHALLTOWN   CLOUDY    16  12  84 E7        30.37F WCI   6          
6HR MIN TEMP:   9; 6HR MAX TEMP:  16;                                

NEWTON *         N/A     19  16  86 NE9       30.35F WCI   9          
PELLA *        CLOUDY    22  16  78 E6        30.36S WCI  14          
PERRY *        CLOUDY    18  14  84 CALM      30.31F                  
$$
 
IAZ004>006-015-016-023>025-035-036-200100-
   NORTH CENTRAL IOWA
  
CITY           SKY/WX    TMP DP  RH WIND       PRES   REMARKS
ALGONA *       CLOUDY    14  10  85 SE10      30.35R WCI   1          
CLARION *      CLOUDY    16  10  79 E7        30.37R WCI   6          
ESTHERVILLE    CLOUDY    10   7  87 SE6       30.35R WCI   0          
6HR MIN TEMP:   6; 6HR MAX TEMP:  11;                                

FORT DODGE *   CLOUDY    16  11  80 E7        30.35S WCI   6          
MASON CITY     CLOUDY    15   9  76 SE7       30.38R WCI   5          
6HR MIN TEMP:  10; 6HR MAX TEMP:  16;                                

FOREST CITY *  CLOUDY    18  10  73 E6        30.37S WCI   9          
IOWA FALLS *   CLOUDY    17  12  83 E7        30.38R WCI   7          
$$

IAZ007>011-017>019-026>030-037>042-050>054-066-200100-
   NORTHEAST IOWA
  
CITY           SKY/WX    TMP DP  RH WIND       PRES   REMARKS
CEDAR RAPIDS   CLOUDY    20  15  81 E12       30.37F WCI   8          
6HR MIN TEMP:  12; 6HR MAX TEMP:  21;                                

CHARLES CITY * CLOUDY    18  12  79 E3        30.40R                  
CLINTON *      CLOUDY    24  18  77 NE9       30.42F WCI  14          
DECORAH *      MOCLDY    18  12  79 E5        30.38S WCI  11          
DUBUQUE        CLOUDY    22  14  71 E5        30.41F WCI  16          
6HR MIN TEMP:  17; 6HR MAX TEMP:  22;                                

OELWEIN *      CLOUDY    18  14  86 E9        30.39R WCI   6          
WATERLOO       CLOUDY    19  12  74 E6        30.40R WCI  11          
6HR MIN TEMP:  11; 6HR MAX TEMP:  19;                                

$$
 
IAZ064-065-067-068-078-200100-
   EAST CENTRAL IOWA
  
CITY           SKY/WX    TMP DP  RH WIND       PRES   REMARKS
DAVENPORT      CLOUDY    24  16  71 E9        30.42F WCI  14          
6HR MIN TEMP:  20; 6HR MAX TEMP:  24;                                

IOWA CITY      CLOUDY    24  16  71 E7        30.41F WCI  16          
6HR MIN TEMP:  17; 6HR MAX TEMP:  24;                                

MT. PLEASANT * CLOUDY    28  23  80 E12       30.36F WCI  18          
MUSCATINE *    CLOUDY    27  18  69 E10       30.40F WCI  17          
QUAD CITIES    CLOUDY    27  18  69 NE9       30.40F WCI  18          
6HR MIN TEMP:  26; 6HR MAX TEMP:  29;                                

$$
 
IAZ062-063-075>077-085>089-095>099-200100-
   SOUTHEAST IOWA
  
CITY           SKY/WX    TMP DP  RH WIND       PRES   REMARKS
BURLINGTON     CLOUDY    30  21  69 E8        30.36F WCI  22          
6HR MIN TEMP:  28; 6HR MAX TEMP:  30;                                

FAIRFIELD *    CLOUDY    27  19  74 E12       30.34F WCI  16          
FORT MADISON * CLOUDY    28  25  86 NE10      30.34F WCI  19          
KEOKUK *       CLOUDY    30  25  80 E13       30.34F WCI  20          
OSKALOOSA *    CLOUDY    22  18  83 E10       30.35S WCI  11          
OTTUMWA        CLOUDY    24  18  77 E10       30.34S WCI  14          
6HR MIN TEMP:  14; 6HR MAX TEMP:  24;                                

WASHINGTON *   CLOUDY    23  19  86 NE13      30.37F WCI  11          
$$

ABBREVIATIONS USED IN REMARKS
   TC - TEMPERATURES IN CELSIUS
  WCI - WIND CHILL INDEX
   HX - HEAT INDEX
  VSB - VISIBILITY  
$$